This is the latest recevied weather packets stored in our database for station/object OE6ACM-10. If no packets are shown the sender has not sent any weather packets the latest 10 day(s).
| Time | Temp. | Humidity | Pressure | Rain* | Wind** | Luminosity | Snow |
|---|---|---|---|---|---|---|---|
| 1778171624 | 22.22° C | 100% | 924 hPa | - | - | - | - |
| 1778171324 | 22.22° C | 100% | 924.1 hPa | - | - | - | - |
| 1778171024 | 21.67° C | 100% | 924 hPa | - | - | - | - |
| 1778170724 | 21.67° C | 100% | 923.7 hPa | - | - | - | - |
| 1778170424 | 23.33° C | 100% | 923.5 hPa | - | - | - | - |
| 1778170124 | 23.33° C | 100% | 923.5 hPa | - | - | - | - |
| 1778169824 | 23.33° C | 100% | 923.6 hPa | - | - | - | - |
| 1778169524 | 23.89° C | 100% | 923.5 hPa | - | - | - | - |
| 1778169224 | 24.44° C | 100% | 923.2 hPa | - | - | - | - |
| 1778168924 | 24.44° C | 100% | 923 hPa | - | - | - | - |
| 1778168624 | 24.44° C | 100% | 923.1 hPa | - | - | - | - |
| 1778168295 | 25° C | 100% | 923 hPa | - | - | - | - |
| 1778167995 | 25° C | 100% | 922.9 hPa | - | - | - | - |
| 1778167695 | 25.56° C | 100% | 922.9 hPa | - | - | - | - |
| 1778167395 | 25.56° C | 100% | 922.8 hPa | - | - | - | - |
| 1778167095 | 26.11° C | 100% | 922.8 hPa | - | - | - | - |
| 1778166795 | 26.11° C | 100% | 922.8 hPa | - | - | - | - |
| 1778166495 | 26.11° C | 100% | 922.8 hPa | - | - | - | - |
| 1778166195 | 25.56° C | 100% | 922.8 hPa | - | - | - | - |
| 1778165895 | 26.11° C | 100% | 922.8 hPa | - | - | - | - |
| 1778165595 | 26.67° C | 100% | 922.7 hPa | - | - | - | - |
| 1778165295 | 26.67° C | 100% | 922.6 hPa | - | - | - | - |
| 1778164995 | 25.56° C | 100% | 922.7 hPa | - | - | - | - |
| 1778164695 | 26.11° C | 100% | 922.7 hPa | - | - | - | - |
| 1778164395 | 25.56° C | 100% | 922.6 hPa | - | - | - | - |
* Rain since midnight (hover to see other rain measurements)
** Current wind speed in m/s (hover to see current wind gust speed)